ATLAS 5 CENTAUR DEB, 49340

Orbit data source: Space-Track

ATLAS 5 CENTAUR DEB, 49340 is space debris in HEO originally from a launch on Wed, 17 Oct 2018 UTC launched from the Air Force Eastern Test Range (AFETR). Debris objects in space refer to the collection of defunct objects orbiting the Earth. Examples of debris include non-operational satellites, rocket bodies, and fragments generated from explosions, collisions, or faulty payload assembly.

Loading next visibility...
Identifier
49340, 2018-079ER
Orbit
HEO
Country
Flag of USUS
Related business
Flag of USUnited Launch Alliance/Lockheed Martin (US)
Manufacturer
ULA Decatur
Mission
Spacecraft
Bus & Motor
Unknown
Mass
Unknown
Launch date (UTC)
2018-10-17 (7 years ago)
Launch vehicle
Unknown
Launch site
Air Force Eastern Test Range (AFETR)
Object type
Payload
Rocket body
Debris
Shape & HBR
Unknown shape, 1.1 m
Radar Cross Section
RCS unknown

Expand to show TLE details & history
Last TLE update: 5 days ago

TLE from 5 days ago
0 ATLAS 5 CENTAUR DEB
1 49340U 18079ER  25290.90170354 -.00000077  00000-0  00000-0 0  9997
2 49340  13.4853  57.6797 4766479 261.8145  43.6372  1.76312143 26637
Epoch: 2025-10-17T21:38Z
TLE epoch observation values (Epoch: 2025-10-17T21:38:27.185Z)
Latitude
-0.00001°
Longitude
66.38923°
Altitude
17,601.13 km
Speed
4.413 km/s
True Right ascension
03h 50m 34s
True Declination
0° 00' 00"
Sunlit
Object was in daylight at epoch
Visualization orbit readout
Latitude
Unknown
Longitude
Unknown
Altitude
Unknown
Speed
Unknown
Apparent Right ascension
Unknown
Apparent Declination
Unknown
Sunlit
N/A
Visualization observer readout
Local Sidereal Time
09:57:07
Azimuth
Unknown
Elevation
Unknown
Doppler factor
Unknown
Orbital elements
Apogee altitude
36,363.89 km
Perigee altitude
8,770.45 km
Semi-major axis
28,945.307 km
Eccentricity
0.47665
Inclination
13.4853°
RAAN
57.6797°
Arg. of periapsis
261.8145°
True anomaly
98.37105°
Mean anomaly
43.6372°
Eccentric anomaly
69.16052°
Mean motion
0.44073 °/min
Orbital period
816.82 mins
BSTAR
0
Loading maneuver chart data...
Computing Atmospheric mass density...

Documentation

Showing up to 5 results
|